| time (UTC) | temp F | wind direction | speed MPH | gust MPH | rain 1hr in | rain 24hr in | rain mn in | humidity % | barometer mb |
| 20260902000614 | 75 | 323 | 5.0 | 13.0 | 0.00 | 0.00 | 0.00 | 73 | 1014.1 |
| 20260902000115 | 75 | 211 | 4.0 | 10.0 | 0.00 | 0.00 | 0.00 | 73 | 1014.1 |
| 20260901235615 | 75 | 0 | 4.0 | 10.0 | 0.00 | 0.00 | 0.00 | 73 | 1014.1 |
| 20260901235115 | 75 | 252 | 4.0 | 11.0 | 0.00 | 0.00 | 0.00 | 72 | 1014.1 |
| 20260901234929 | 75 | 0 | 5.0 | 12.0 | 0.00 | 0.00 | 0.00 | 73 | 1014.2 |
| 20260901234742 | 75 | 0 | 5.0 | 11.0 | 0.00 | 0.00 | 0.00 | 73 | 1014.2 |
| 20260901233609 | 75 | 232 | 5.0 | 12.0 | 0.00 | 0.00 | 0.00 | 73 | 1014.2 |
| 20260901233111 | 75 | 259 | 4.0 | 10.0 | 0.00 | 0.00 | 0.00 | 72 | 1014.2 |
| 20260901232608 | 75 | 0 | 4.0 | 10.0 | 0.00 | 0.00 | 0.00 | 72 | 1014.3 |
| 20260901232111 | 75 | 234 | 5.0 | 10.0 | 0.00 | 0.00 | 0.00 | 73 | 1014.3 |
| 20260901231937 | 75 | 0 | 5.0 | 10.0 | 0.00 | 0.00 | 0.00 | 72 | 1014.3 |
| 20260901231115 | 75 | 212 | 5.0 | 13.0 | 0.00 | 0.00 | 0.00 | 72 | 1014.3 |
| 20260901230959 | 75 | 256 | 5.0 | 13.0 | 0.00 | 0.00 | 0.00 | 72 | 1014.4 |
| 20260901230111 | 75 | 254 | 6.0 | 12.0 | 0.00 | 0.00 | 0.00 | 72 | 1014.5 |
| 20260901225606 | 76 | 168 | 5.0 | 12.0 | 0.00 | 0.00 | 0.00 | 71 | 1014.4 |
| 20260901225107 | 76 | 235 | 5.0 | 14.0 | 0.00 | 0.00 | 0.00 | 71 | 1014.4 |
| 20260901224604 | 75 | 219 | 5.0 | 14.0 | 0.00 | 0.00 | 0.00 | 71 | 1014.4 |
| 20260901224107 | 76 | 264 | 5.0 | 13.0 | 0.00 | 0.00 | 0.00 | 71 | 1014.4 |
| 20260901223605 | 76 | 0 | 5.0 | 12.0 | 0.00 | 0.00 | 0.00 | 71 | 1014.4 |
| 20260901223105 | 76 | 274 | 5.0 | 12.0 | 0.00 | 0.00 | 0.00 | 71 | 1014.4 |
| 20260901222601 | 76 | 0 | 5.0 | 12.0 | 0.00 | 0.00 | 0.00 | 71 | 1014.5 |
| 20260901222103 | 76 | 253 | 5.0 | 12.0 | 0.00 | 0.00 | 0.00 | 71 | 1014.5 |
| 20260901221605 | 76 | 230 | 4.0 | 11.0 | 0.00 | 0.00 | 0.00 | 71 | 1014.5 |
| 20260901221102 | 76 | 250 | 5.0 | 11.0 | 0.00 | 0.00 | 0.00 | 71 | 1014.6 |
| 20260901220601 | 76 | 0 | 5.0 | 12.0 | 0.00 | 0.00 | 0.00 | 71 | 1014.6 |
| 20260901215937 | 76 | 188 | 5.0 | 12.0 | 0.00 | 0.00 | 0.00 | 71 | 1014.7 |
| 20260901215102 | 76 | 0 | 5.0 | 11.0 | 0.00 | 0.00 | 0.00 | 71 | 1014.8 |
| 20260901214605 | 76 | 0 | 5.0 | 13.0 | 0.00 | 0.00 | 0.00 | 71 | 1014.7 |
| 20260901214102 | 76 | 0 | 5.0 | 13.0 | 0.00 | 0.00 | 0.00 | 70 | 1014.7 |
| 20260901213605 | 76 | 231 | 5.0 | 10.0 | 0.00 | 0.00 | 0.00 | 70 | 1014.8 |
| 20260901213103 | 76 | 302 | 4.0 | 9.0 | 0.00 | 0.00 | 0.00 | 70 | 1014.7 |
| 20260901212946 | 77 | 0 | 5.0 | 12.0 | 0.00 | 0.00 | 0.00 | 69 | 1014.9 |
| 20260901212057 | 76 | 0 | 5.0 | 12.0 | 0.00 | 0.00 | 0.00 | 70 | 1014.9 |
| 20260901211939 | 76 | 0 | 4.0 | 11.0 | 0.00 | 0.00 | 0.00 | 70 | 1014.9 |
| 20260901211039 | 76 | 0 | 4.0 | 9.0 | 0.00 | 0.00 | 0.00 | 71 | 1014.9 |
| 20260901210530 | 76 | 205 | 5.0 | 11.0 | 0.00 | 0.00 | 0.00 | 70 | 1014.8 |
| 20260901210031 | 76 | 0 | 4.0 | 11.0 | 0.00 | 0.00 | 0.00 | 69 | 1014.9 |
| 20260901205530 | 76 | 262 | 4.0 | 10.0 | 0.00 | 0.00 | 0.00 | 70 | 1015.0 |
| 20260901205032 | 76 | 0 | 4.0 | 12.0 | 0.00 | 0.00 | 0.00 | 71 | 1014.9 |
| 20260901204532 | 76 | 282 | 4.0 | 12.0 | 0.00 | 0.00 | 0.00 | 71 | 1015.0 |
| 20260901204407 | 76 | 0 | 5.0 | 12.0 | 0.00 | 0.00 | 0.00 | 72 | 1015.1 |
| 20260901203532 | 76 | 328 | 5.0 | 11.0 | 0.00 | 0.00 | 0.00 | 72 | 1015.1 |
| 20260901203031 | 76 | 0 | 5.0 | 11.0 | 0.00 | 0.00 | 0.00 | 72 | 1015.1 |
| 20260901202530 | 76 | 298 | 4.0 | 10.0 | 0.00 | 0.00 | 0.00 | 71 | 1015.1 |
| 20260901202029 | 76 | 188 | 4.0 | 10.0 | 0.00 | 0.00 | 0.00 | 72 | 1015.2 |
| 20260901201530 | 76 | 0 | 4.0 | 10.0 | 0.00 | 0.00 | 0.00 | 71 | 1015.2 |
| 20260901201329 | 76 | 0 | 4.0 | 9.0 | 0.00 | 0.00 | 0.00 | 71 | 1015.2 |
| 20260901200530 | 76 | 0 | 4.0 | 11.0 | 0.00 | 0.00 | 0.00 | 72 | 1015.3 |
| 20260901200029 | 75 | 0 | 5.0 | 13.0 | 0.00 | 0.00 | 0.00 | 72 | 1015.4 |
| 20260901195900 | 75 | 275 | 5.0 | 13.0 | 0.00 | 0.00 | 0.00 | 72 | 1015.4 |
| 20260901195032 | 75 | 0 | 5.0 | 12.0 | 0.00 | 0.00 | 0.00 | 72 | 1015.5 |
| 20260901194530 | 76 | 284 | 4.0 | 10.0 | 0.00 | 0.00 | 0.00 | 72 | 1015.5 |
| 20260901194029 | 76 | 204 | 5.0 | 11.0 | 0.00 | 0.00 | 0.00 | 72 | 1015.6 |
| 20260901193530 | 76 | 254 | 4.0 | 11.0 | 0.00 | 0.00 | 0.00 | 72 | 1015.6 |
| 20260901193029 | 75 | 192 | 4.0 | 11.0 | 0.00 | 0.00 | 0.00 | 73 | 1015.6 |
| 20260901192529 | 75 | 0 | 4.0 | 11.0 | 0.00 | 0.00 | 0.00 | 72 | 1015.7 |
| 20260901192031 | 76 | 267 | 4.0 | 9.0 | 0.00 | 0.00 | 0.00 | 72 | 1015.8 |
| 20260901191853 | 75 | 182 | 4.0 | 9.0 | 0.00 | 0.00 | 0.00 | 73 | 1015.7 |
| 20260901191029 | 75 | 281 | 4.0 | 8.0 | 0.00 | 0.00 | 0.00 | 73 | 1015.8 |
| 20260901190530 | 75 | 0 | 4.0 | 8.0 | 0.00 | 0.00 | 0.00 | 73 | 1015.8 |
| 20260901190028 | 75 | 0 | 4.0 | 11.0 | 0.00 | 0.00 | 0.00 | 73 | 1015.8 |
| 20260901185529 | 75 | 315 | 4.0 | 11.0 | 0.00 | 0.00 | 0.00 | 72 | 1015.8 |
| 20260901185400 | 75 | 223 | 3.0 | 10.0 | 0.00 | 0.00 | 0.00 | 73 | 1015.8 |
| 20260901184529 | 75 | 0 | 3.0 | 9.0 | 0.00 | 0.00 | 0.00 | 73 | 1015.9 |
| 20260901184250 | 75 | 0 | 3.0 | 9.0 | 0.00 | 0.00 | 0.00 | 73 | 1015.8 |
| 20260901184034 | 75 | 0 | 3.0 | 9.0 | 0.00 | 0.00 | 0.00 | 73 | 1015.8 |
| 20260901183529 | 75 | 162 | 3.0 | 6.0 | 0.00 | 0.00 | 0.00 | 74 | 1015.8 |
| 20260901183031 | 74 | 0 | 3.0 | 6.0 | 0.00 | 0.00 | 0.00 | 74 | 1015.8 |
| 20260901182530 | 74 | 190 | 3.0 | 8.0 | 0.00 | 0.00 | 0.00 | 74 | 1015.9 |
| 20260901182030 | 74 | 0 | 3.0 | 9.0 | 0.00 | 0.00 | 0.00 | 75 | 1015.9 |
| 20260901181529 | 74 | 0 | 3.0 | 9.0 | 0.00 | 0.00 | 0.00 | 75 | 1015.8 |
| 20260901181030 | 74 | 288 | 3.0 | 9.0 | 0.00 | 0.00 | 0.00 | 75 | 1015.9 |
| 20260901180849 | 74 | 218 | 3.0 | 6.0 | 0.00 | 0.00 | 0.00 | 75 | 1015.9 |
| 20260901180030 | 74 | 168 | 3.0 | 6.0 | 0.00 | 0.00 | 0.00 | 76 | 1015.9 |
| 20260901175530 | 74 | 183 | 3.0 | 9.0 | 0.00 | 0.00 | 0.00 | 76 | 1015.9 |
| 20260901175029 | 73 | 217 | 3.0 | 9.0 | 0.00 | 0.00 | 0.00 | 76 | 1015.9 |
| 20260901174533 | 73 | 250 | 3.0 | 7.0 | 0.00 | 0.00 | 0.00 | 76 | 1015.8 |
| 20260901174029 | 73 | 262 | 3.0 | 6.0 | 0.00 | 0.00 | 0.00 | 77 | 1015.9 |
| 20260901173530 | 73 | 0 | 3.0 | 6.0 | 0.00 | 0.00 | 0.00 | 76 | 1015.9 |
| 20260901173031 | 73 | 233 | 3.0 | 10.0 | 0.00 | 0.00 | 0.00 | 77 | 1015.9 |
| 20260901172529 | 73 | 185 | 3.0 | 10.0 | 0.00 | 0.00 | 0.00 | 77 | 1015.8 |
| 20260901172033 | 73 | 209 | 3.0 | 6.0 | 0.00 | 0.00 | 0.00 | 77 | 1015.7 |
| 20260901171530 | 73 | 0 | 3.0 | 7.0 | 0.00 | 0.00 | 0.00 | 77 | 1015.7 |
| 20260901171038 | 73 | 254 | 3.0 | 7.0 | 0.00 | 0.00 | 0.00 | 77 | 1015.7 |
| 20260901170536 | 73 | 309 | 2.0 | 5.0 | 0.00 | 0.00 | 0.00 | 78 | 1015.7 |
| 20260901170413 | 73 | 265 | 3.0 | 7.0 | 0.00 | 0.00 | 0.00 | 78 | 1015.7 |
| 20260901165533 | 73 | 204 | 3.0 | 7.0 | 0.00 | 0.00 | 0.00 | 78 | 1015.6 |
| 20260901165034 | 73 | 261 | 2.0 | 6.0 | 0.00 | 0.00 | 0.00 | 78 | 1015.5 |
| 20260901164859 | 72 | 254 | 2.0 | 5.0 | 0.00 | 0.00 | 0.00 | 80 | 1015.6 |
| 20260901164414 | 72 | 301 | 2.0 | 5.0 | 0.00 | 0.00 | 0.00 | 80 | 1015.7 |
| 20260901163548 | 71 | 235 | 2.0 | 5.0 | 0.00 | 0.00 | 0.00 | 81 | 1015.6 |
| 20260901163032 | 71 | 267 | 2.0 | 6.0 | 0.00 | 0.00 | 0.00 | 80 | 1015.7 |
| 20260901162908 | 71 | 223 | 2.0 | 6.0 | 0.00 | 0.00 | 0.00 | 80 | 1015.7 |
| 20260901162030 | 71 | 250 | 2.0 | 6.0 | 0.00 | 0.00 | 0.00 | 80 | 1015.7 |
| 20260901161536 | 71 | 0 | 2.0 | 6.0 | 0.00 | 0.00 | 0.00 | 80 | 1015.7 |
| 20260901161028 | 72 | 252 | 2.0 | 6.0 | 0.00 | 0.00 | 0.00 | 80 | 1015.7 |
| 20260901160535 | 72 | 0 | 2.0 | 6.0 | 0.00 | 0.00 | 0.00 | 80 | 1015.6 |
| 20260901160027 | 71 | 267 | 1.0 | 5.0 | 0.00 | 0.00 | 0.00 | 81 | 1015.7 |
| 20260901155531 | 71 | 112 | 1.0 | 7.0 | 0.00 | 0.00 | 0.00 | 81 | 1015.7 |
| 20260901155021 | 71 | 98 | 1.0 | 7.0 | 0.00 | 0.00 | 0.00 | 82 | 1015.7 |
| 20260901154526 | 71 | 0 | 2.0 | 6.0 | 0.00 | 0.00 | 0.00 | 81 | 1015.6 |
| 20260901154022 | 71 | 210 | 2.0 | 6.0 | 0.00 | 0.00 | 0.00 | 81 | 1015.6 |
| 20260901153522 | 71 | 163 | 2.0 | 6.0 | 0.00 | 0.00 | 0.00 | 82 | 1015.5 |
| 20260901153019 | 71 | 197 | 2.0 | 6.0 | 0.00 | 0.00 | 0.00 | 82 | 1015.4 |
| 20260901152523 | 70 | 113 | 2.0 | 5.0 | 0.00 | 0.00 | 0.00 | 82 | 1015.5 |
| 20260901152015 | 70 | 119 | 2.0 | 6.0 | 0.00 | 0.00 | 0.00 | 83 | 1015.5 |
| 20260901151522 | 70 | 79 | 2.0 | 6.0 | 0.00 | 0.00 | 0.00 | 83 | 1015.5 |
| 20260901151014 | 69 | 120 | 2.0 | 4.0 | 0.00 | 0.00 | 0.00 | 85 | 1015.5 |
| 20260901150514 | 69 | 138 | 2.0 | 4.0 | 0.00 | 0.00 | 0.00 | 85 | 1015.4 |
| 20260901150014 | 69 | 117 | 1.0 | 4.0 | 0.00 | 0.00 | 0.00 | 86 | 1015.4 |
| 20260901145653 | 67 | 57 | 1.0 | 3.0 | 0.00 | 0.00 | 0.00 | 89 | 1015.1 |
| 20260901145649 | 67 | 55 | 1.0 | 3.0 | 0.00 | 0.00 | 0.00 | 89 | 1015.0 |
| 20260901145623 | 68 | 57 | 1.0 | 3.0 | 0.00 | 0.00 | 0.00 | 87 | 1015.3 |
| 20260901145120 | 67 | 57 | 1.0 | 3.0 | 0.00 | 0.00 | 0.00 | 88 | 1015.2 |
| 20260901143539 | 66 | 0 | 1.0 | 3.0 | 0.00 | 0.00 | 0.00 | 90 | 1014.9 |
| 20260901143011 | 64 | 0 | 0.0 | 0.0 | 0.00 | 0.00 | 0.00 | 93 | 1014.7 |
| 20260901143005 | 65 | 0 | 0.0 | 2.0 | 0.00 | 0.00 | 0.00 | 91 | 1014.9 |
| 20260901142734 | 65 | 0 | 0.0 | 0.0 | 0.00 | 0.00 | 0.00 | 93 | 1014.8 |
| 20260901142729 | 64 | 0 | 0.0 | 0.0 | 0.00 | 0.00 | 0.00 | 93 | 1014.7 |
| 20260901142555 | 65 | 0 | 0.0 | 0.0 | 0.00 | 0.00 | 0.00 | 92 | 1014.8 |
| 20260901141113 | 64 | 0 | 0.0 | 2.0 | 0.00 | 0.00 | 0.00 | 93 | 1014.6 |
| 20260901140501 | 63 | 0 | 1.0 | 2.0 | 0.00 | 0.00 | 0.00 | 93 | 1014.5 |
| 20260901140002 | 63 | 0 | 1.0 | 2.0 | 0.00 | 0.00 | 0.00 | 93 | 1014.4 |
| 20260901135509 | 63 | 0 | 0.0 | 2.0 | 0.00 | 0.00 | 0.00 | 94 | 1014.5 |
| 20260901135001 | 62 | 0 | 0.0 | 0.0 | 0.00 | 0.00 | 0.00 | 94 | 1014.5 |
| 20260901134501 | 62 | 0 | 0.0 | 0.0 | 0.00 | 0.00 | 0.00 | 93 | 1014.5 |
| 20260901134001 | 62 | 0 | 0.0 | 0.0 | 0.00 | 0.00 | 0.00 | 93 | 1014.5 |
| 20260901133458 | 62 | 0 | 0.0 | 0.0 | 0.00 | 0.00 | 0.00 | 92 | 1014.4 |
| 20260901132955 | 62 | 0 | 0.0 | 0.0 | 0.00 | 0.00 | 0.00 | 92 | 1014.4 |
| 20260901132455 | 62 | 0 | 0.0 | 0.0 | 0.00 | 0.00 | 0.00 | 92 | 1014.3 |
| 20260901131951 | 62 | 0 | 0.0 | 0.0 | 0.00 | 0.00 | 0.00 | 92 | 1014.3 |
| 20260901131453 | 62 | 0 | 0.0 | 0.0 | 0.00 | 0.00 | 0.00 | 92 | 1014.3 |
| 20260901130952 | 62 | 0 | 0.0 | 0.0 | 0.00 | 0.00 | 0.00 | 92 | 1014.3 |
| 20260901130451 | 62 | 0 | 0.0 | 0.0 | 0.00 | 0.00 | 0.00 | 92 | 1014.3 |
| 20260901125951 | 62 | 0 | 0.0 | 0.0 | 0.00 | 0.00 | 0.00 | 92 | 1014.2 |
| 20260901125452 | 62 | 0 | 0.0 | 0.0 | 0.00 | 0.00 | 0.00 | 92 | 1014.1 |
| 20260901125232 | 62 | 0 | 0.0 | 0.0 | 0.00 | 0.00 | 0.00 | 92 | 1014.1 |
| 20260901124447 | 63 | 0 | 0.0 | 0.0 | 0.00 | 0.00 | 0.00 | 92 | 1014.1 |
| 20260901123946 | 63 | 0 | 0.0 | 0.0 | 0.00 | 0.00 | 0.00 | 91 | 1014.1 |
| 20260901123445 | 63 | 0 | 0.0 | 0.0 | 0.00 | 0.00 | 0.00 | 91 | 1014.1 |
| 20260901122941 | 63 | 0 | 0.0 | 0.0 | 0.00 | 0.00 | 0.00 | 91 | 1014.1 |
| 20260901122440 | 63 | 0 | 0.0 | 0.0 | 0.00 | 0.00 | 0.00 | 91 | 1014.1 |
| 20260901121946 | 63 | 0 | 0.0 | 0.0 | 0.00 | 0.00 | 0.00 | 91 | 1014.1 |
| 20260901121442 | 63 | 0 | 0.0 | 0.0 | 0.00 | 0.00 | 0.00 | 91 | 1014.1 |
| 20260901121252 | 63 | 0 | 0.0 | 0.0 | 0.00 | 0.00 | 0.00 | 91 | 1014.0 |
| 20260901120437 | 63 | 0 | 0.0 | 0.0 | 0.00 | 0.00 | 0.00 | 91 | 1014.0 |
| 20260901115939 | 63 | 0 | 0.0 | 0.0 | 0.00 | 0.00 | 0.00 | 91 | 1014.1 |
| 20260901115432 | 63 | 0 | 0.0 | 0.0 | 0.00 | 0.00 | 0.00 | 91 | 1014.0 |
| 20260901114936 | 63 | 0 | 0.0 | 0.0 | 0.00 | 0.00 | 0.00 | 91 | 1013.9 |
| 20260901114435 | 63 | 0 | 0.0 | 0.0 | 0.00 | 0.00 | 0.00 | 91 | 1013.8 |
| 20260901114300 | 63 | 0 | 0.0 | 0.0 | 0.00 | 0.00 | 0.00 | 91 | 1013.9 |
| 20260901113426 | 63 | 0 | 0.0 | 0.0 | 0.00 | 0.00 | 0.00 | 91 | 1013.8 |
| 20260901112933 | 63 | 0 | 0.0 | 0.0 | 0.00 | 0.00 | 0.00 | 91 | 1013.8 |
| 20260901112425 | 63 | 0 | 0.0 | 0.0 | 0.00 | 0.00 | 0.00 | 91 | 1013.9 |
| 20260901112221 | 63 | 0 | 0.0 | 0.0 | 0.00 | 0.00 | 0.00 | 90 | 1013.9 |
| 20260901111424 | 63 | 0 | 0.0 | 0.0 | 0.00 | 0.00 | 0.00 | 90 | 1013.9 |
| 20260901110925 | 64 | 0 | 0.0 | 0.0 | 0.00 | 0.00 | 0.00 | 90 | 1013.8 |
| 20260901110422 | 64 | 0 | 0.0 | 0.0 | 0.00 | 0.00 | 0.00 | 90 | 1014.0 |
| 20260901105926 | 64 | 0 | 0.0 | 0.0 | 0.00 | 0.00 | 0.00 | 90 | 1013.9 |
| 20260901105421 | 64 | 0 | 0.0 | 0.0 | 0.00 | 0.00 | 0.00 | 90 | 1013.9 |
| 20260901105229 | 64 | 0 | 0.0 | 0.0 | 0.00 | 0.00 | 0.00 | 90 | 1013.9 |
| 20260901104421 | 64 | 0 | 0.0 | 0.0 | 0.00 | 0.00 | 0.00 | 90 | 1013.9 |
| 20260901103920 | 64 | 0 | 0.0 | 0.0 | 0.00 | 0.00 | 0.00 | 90 | 1014.0 |
| 20260901103420 | 64 | 0 | 0.0 | 0.0 | 0.00 | 0.00 | 0.00 | 89 | 1014.1 |
| 20260901103253 | 64 | 0 | 0.0 | 0.0 | 0.00 | 0.00 | 0.00 | 90 | 1014.1 |
| 20260901102422 | 64 | 0 | 0.0 | 0.0 | 0.00 | 0.00 | 0.00 | 90 | 1014.1 |
| 20260901101917 | 64 | 0 | 0.0 | 0.0 | 0.00 | 0.00 | 0.00 | 89 | 1014.2 |
| 20260901101420 | 65 | 0 | 0.0 | 0.0 | 0.00 | 0.00 | 0.00 | 89 | 1014.2 |
| 20260901100919 | 65 | 0 | 0.0 | 0.0 | 0.00 | 0.00 | 0.00 | 89 | 1014.2 |
| 20260901100413 | 65 | 0 | 0.0 | 0.0 | 0.00 | 0.00 | 0.00 | 89 | 1014.2 |
| 20260901095905 | 65 | 0 | 0.0 | 0.0 | 0.00 | 0.00 | 0.00 | 89 | 1014.1 |
| 20260901095405 | 65 | 0 | 0.0 | 0.0 | 0.00 | 0.00 | 0.00 | 89 | 1014.2 |
| 20260901094903 | 65 | 0 | 0.0 | 0.0 | 0.00 | 0.00 | 0.00 | 89 | 1014.1 |
| 20260901094701 | 65 | 0 | 0.0 | 0.0 | 0.00 | 0.00 | 0.00 | 89 | 1014.2 |
| 20260901093903 | 65 | 0 | 0.0 | 0.0 | 0.00 | 0.00 | 0.00 | 89 | 1014.1 |
| 20260901093401 | 65 | 0 | 0.0 | 0.0 | 0.00 | 0.00 | 0.00 | 89 | 1014.1 |
| 20260901092901 | 65 | 0 | 0.0 | 0.0 | 0.00 | 0.00 | 0.00 | 89 | 1014.0 |
| 20260901092400 | 65 | 0 | 0.0 | 0.0 | 0.00 | 0.00 | 0.00 | 88 | 1014.0 |
| 20260901091901 | 65 | 0 | 0.0 | 0.0 | 0.00 | 0.00 | 0.00 | 88 | 1014.1 |
| 20260901091357 | 66 | 0 | 0.0 | 0.0 | 0.00 | 0.00 | 0.00 | 88 | 1014.1 |
| 20260901090855 | 66 | 0 | 0.0 | 0.0 | 0.00 | 0.00 | 0.00 | 88 | 1014.2 |
| 20260901090357 | 66 | 0 | 0.0 | 2.0 | 0.00 | 0.00 | 0.00 | 88 | 1014.2 |
| 20260901085852 | 66 | 0 | 1.0 | 4.0 | 0.00 | 0.00 | 0.00 | 88 | 1014.2 |
| 20260901085353 | 66 | 0 | 1.0 | 4.0 | 0.00 | 0.00 | 0.00 | 89 | 1014.3 |
| 20260901085222 | 65 | 0 | 1.0 | 4.0 | 0.00 | 0.00 | 0.00 | 89 | 1014.3 |
| 20260901084719 | 65 | 0 | 0.0 | 2.0 | 0.00 | 0.00 | 0.00 | 89 | 1014.3 |
| 20260901083853 | 65 | 0 | 0.0 | 2.0 | 0.00 | 0.00 | 0.00 | 89 | 1014.3 |
| 20260901083737 | 65 | 0 | 0.0 | 0.0 | 0.00 | 0.00 | 0.00 | 89 | 1014.4 |
| 20260901082855 | 65 | 0 | 0.0 | 0.0 | 0.00 | 0.00 | 0.00 | 89 | 1014.4 |
| 20260901082354 | 65 | 0 | 0.0 | 0.0 | 0.00 | 0.00 | 0.00 | 89 | 1014.4 |
| 20260901081854 | 66 | 0 | 0.0 | 0.0 | 0.00 | 0.00 | 0.00 | 88 | 1014.3 |
| 20260901081617 | 66 | 0 | 0.0 | 2.0 | 0.00 | 0.00 | 0.00 | 88 | 1014.3 |
| 20260901081513 | 66 | 0 | 0.0 | 2.0 | 0.00 | 0.00 | 0.00 | 88 | 1014.3 |
| 20260901080349 | 66 | 0 | 0.0 | 2.0 | 0.00 | 0.00 | 0.00 | 88 | 1014.2 |
| 20260901075849 | 66 | 0 | 0.0 | 1.0 | 0.00 | 0.00 | 0.00 | 88 | 1014.3 |
| 20260901075350 | 66 | 0 | 0.0 | 2.0 | 0.00 | 0.00 | 0.00 | 88 | 1014.4 |
| 20260901075005 | 66 | 0 | 1.0 | 2.0 | 0.00 | 0.00 | 0.00 | 87 | 1014.3 |
| 20260901074926 | 66 | 0 | 0.0 | 2.0 | 0.00 | 0.00 | 0.00 | 88 | 1014.3 |
| 20260901073848 | 67 | 0 | 1.0 | 2.0 | 0.00 | 0.00 | 0.00 | 87 | 1014.3 |
| 20260901073353 | 67 | 0 | 0.0 | 2.0 | 0.00 | 0.00 | 0.00 | 88 | 1014.3 |
| 20260901072847 | 67 | 0 | 0.0 | 2.0 | 0.00 | 0.00 | 0.00 | 87 | 1014.5 |
| 20260901072349 | 67 | 0 | 1.0 | 4.0 | 0.00 | 0.00 | 0.00 | 87 | 1014.5 |
| 20260901071844 | 67 | 0 | 1.0 | 4.0 | 0.00 | 0.00 | 0.00 | 88 | 1014.5 |
| 20260901071344 | 67 | 200 | 1.0 | 4.0 | 0.00 | 0.00 | 0.00 | 88 | 1014.5 |
| 20260901070845 | 67 | 254 | 1.0 | 4.0 | 0.00 | 0.00 | 0.00 | 88 | 1014.5 |
| 20260901070338 | 67 | 254 | 1.0 | 3.0 | 0.00 | 0.00 | 0.00 | 88 | 1014.4 |
| 20260901070237 | 67 | 254 | 0.0 | 2.0 | 0.00 | 0.00 | 0.00 | 88 | 1014.3 |
| 20260901070034 | 67 | 254 | 1.0 | 3.0 | 0.00 | 0.00 | 0.00 | 88 | 1014.4 |
| 20260901064834 | 67 | 254 | 0.0 | 1.0 | 0.00 | 0.00 | 0.00 | 87 | 1014.3 |
| 20260901064335 | 67 | 254 | 0.0 | 3.0 | 0.00 | 0.00 | 0.00 | 87 | 1014.2 |
| 20260901063835 | 67 | 254 | 0.0 | 3.0 | 0.00 | 0.00 | 0.00 | 87 | 1014.2 |
| 20260901063334 | 67 | 254 | 0.0 | 2.0 | 0.00 | 0.00 | 0.00 | 87 | 1014.1 |
| 20260901062838 | 67 | 254 | 1.0 | 3.0 | 0.00 | 0.00 | 0.00 | 87 | 1014.1 |
| 20260901062334 | 67 | 254 | 1.0 | 4.0 | 0.00 | 0.00 | 0.00 | 87 | 1014.1 |
| 20260901061834 | 67 | 254 | 1.0 | 4.0 | 0.00 | 0.00 | 0.00 | 87 | 1014.1 |
| 20260901061336 | 67 | 254 | 0.0 | 3.0 | 0.00 | 0.00 | 0.00 | 86 | 1014.1 |
| 20260901060839 | 67 | 255 | 0.0 | 2.0 | 0.00 | 0.00 | 0.00 | 87 | 1014.1 |
| 20260901060334 | 67 | 254 | 1.0 | 3.0 | 0.00 | 0.00 | 0.00 | 86 | 1014.0 |
| 20260901060138 | 67 | 254 | 1.0 | 4.0 | 0.00 | 0.00 | 0.00 | 86 | 1013.9 |
| 20260901055336 | 67 | 234 | 1.0 | 4.0 | 0.00 | 0.00 | 0.00 | 86 | 1013.9 |
| 20260901054834 | 67 | 0 | 1.0 | 3.0 | 0.00 | 0.00 | 0.00 | 86 | 1013.8 |
| 20260901054331 | 67 | 232 | 1.0 | 3.0 | 0.00 | 0.00 | 0.00 | 86 | 1013.8 |
| 20260901053831 | 67 | 211 | 2.0 | 6.0 | 0.00 | 0.00 | 0.00 | 86 | 1014.0 |
| 20260901053332 | 68 | 234 | 2.0 | 6.0 | 0.00 | 0.00 | 0.00 | 86 | 1013.9 |
| 20260901052829 | 67 | 218 | 1.0 | 6.0 | 0.00 | 0.00 | 0.00 | 86 | 1013.8 |
| 20260901052337 | 68 | 231 | 1.0 | 5.0 | 0.00 | 0.00 | 0.00 | 86 | 1013.8 |
| 20260901051834 | 68 | 0 | 2.0 | 5.0 | 0.00 | 0.00 | 0.00 | 86 | 1013.9 |
| 20260901051341 | 68 | 252 | 2.0 | 5.0 | 0.00 | 0.00 | 0.00 | 86 | 1013.9 |
| 20260901050831 | 68 | 225 | 2.0 | 6.0 | 0.00 | 0.00 | 0.00 | 87 | 1013.8 |
| 20260901050330 | 68 | 209 | 2.0 | 6.0 | 0.00 | 0.00 | 0.00 | 87 | 1013.7 |
| 20260901045829 | 68 | 202 | 2.0 | 6.0 | 0.00 | 0.00 | 0.00 | 87 | 1013.8 |
| 20260901045331 | 68 | 0 | 2.0 | 6.0 | 0.00 | 0.00 | 0.00 | 87 | 1013.9 |
| 20260901045200 | 68 | 202 | 2.0 | 6.0 | 0.00 | 0.00 | 0.00 | 87 | 1013.9 |
| 20260901044815 | 68 | 219 | 1.0 | 4.0 | 0.00 | 0.00 | 0.00 | 87 | 1013.8 |
| 20260901044239 | 68 | 0 | 1.0 | 5.0 | 0.00 | 0.00 | 0.00 | 87 | 1013.8 |
| 20260901043329 | 68 | 261 | 1.0 | 5.0 | 0.00 | 0.00 | 0.00 | 87 | 1013.8 |
| 20260901042835 | 68 | 251 | 1.0 | 4.0 | 0.00 | 0.00 | 0.00 | 87 | 1013.7 |
| 20260901042329 | 68 | 232 | 1.0 | 4.0 | 0.00 | 0.00 | 0.00 | 87 | 1013.6 |
| 20260901041831 | 68 | 0 | 1.0 | 4.0 | 0.00 | 0.00 | 0.00 | 87 | 1013.5 |
| 20260901041329 | 68 | 0 | 1.0 | 4.0 | 0.00 | 0.00 | 0.00 | 87 | 1013.5 |
| 20260901041240 | 68 | 0 | 1.0 | 4.0 | 0.00 | 0.00 | 0.00 | 87 | 1013.5 |
| 20260901040323 | 68 | 198 | 1.0 | 4.0 | 0.00 | 0.00 | 0.00 | 87 | 1013.3 |
| 20260901035820 | 68 | 228 | 1.0 | 3.0 | 0.00 | 0.00 | 0.00 | 88 | 1013.1 |
| 20260901035311 | 68 | 234 | 1.0 | 3.0 | 0.00 | 0.00 | 0.00 | 88 | 1013.0 |
| 20260901034808 | 68 | 258 | 1.0 | 3.0 | 0.00 | 0.00 | 0.00 | 88 | 1012.8 |
| 20260901034309 | 68 | 286 | 1.0 | 3.0 | 0.00 | 0.00 | 0.00 | 88 | 1012.9 |
| 20260901034131 | 68 | 0 | 1.0 | 5.0 | 0.00 | 0.00 | 0.00 | 88 | 1012.8 |
| 20260901033306 | 68 | 250 | 2.0 | 5.0 | 0.00 | 0.00 | 0.00 | 88 | 1012.8 |
| 20260901032806 | 68 | 263 | 2.0 | 5.0 | 0.00 | 0.00 | 0.00 | 88 | 1012.7 |
| 20260901032656 | 68 | 304 | 2.0 | 4.0 | 0.00 | 0.00 | 0.00 | 88 | 1012.6 |
| 20260901031805 | 68 | 251 | 1.0 | 3.0 | 0.00 | 0.00 | 0.00 | 87 | 1012.6 |
| 20260901031304 | 68 | 259 | 2.0 | 4.0 | 0.00 | 0.00 | 0.00 | 87 | 1012.6 |
| 20260901030804 | 69 | 298 | 2.0 | 6.0 | 0.00 | 0.00 | 0.00 | 87 | 1012.5 |
| 20260901030304 | 69 | 298 | 2.0 | 6.0 | 0.00 | 0.00 | 0.00 | 87 | 1012.5 |
| 20260901025805 | 69 | 0 | 2.0 | 5.0 | 0.00 | 0.00 | 0.00 | 87 | 1012.5 |
| 20260901025306 | 69 | 304 | 2.0 | 5.0 | 0.00 | 0.00 | 0.00 | 87 | 1012.4 |
| 20260901024804 | 69 | 0 | 2.0 | 6.0 | 0.00 | 0.00 | 0.00 | 87 | 1012.5 |
| 20260901024300 | 69 | 220 | 2.0 | 6.0 | 0.00 | 0.00 | 0.00 | 87 | 1012.4 |
| 20260901024202 | 69 | 269 | 2.0 | 6.0 | 0.00 | 0.00 | 0.00 | 87 | 1012.4 |
| 20260901023258 | 70 | 301 | 3.0 | 10.0 | 0.00 | 0.00 | 0.00 | 86 | 1012.6 |
| 20260901022756 | 70 | 212 | 3.0 | 10.0 | 0.00 | 0.00 | 0.00 | 86 | 1012.5 |
| 20260901022258 | 70 | 261 | 3.0 | 7.0 | 0.00 | 0.00 | 0.00 | 86 | 1012.4 |
| 20260901021759 | 70 | 0 | 3.0 | 8.0 | 0.00 | 0.00 | 0.00 | 86 | 1012.4 |
| 20260901021255 | 71 | 0 | 3.0 | 8.0 | 0.00 | 0.00 | 0.00 | 86 | 1012.6 |
| 20260901020757 | 71 | 263 | 3.0 | 8.0 | 0.00 | 0.00 | 0.00 | 85 | 1012.5 |
| 20260901020257 | 71 | 221 | 3.0 | 8.0 | 0.00 | 0.00 | 0.00 | 85 | 1012.5 |
| 20260901015755 | 71 | 219 | 3.0 | 10.0 | 0.00 | 0.00 | 0.00 | 85 | 1012.6 |
| 20260901015256 | 71 | 258 | 4.0 | 10.0 | 0.00 | 0.00 | 0.00 | 85 | 1012.6 |
| 20260901014808 | 71 | 0 | 3.0 | 8.0 | 0.00 | 0.00 | 0.00 | 84 | 1012.6 |
| 20260901014608 | 71 | 192 | 3.0 | 7.0 | 0.00 | 0.00 | 0.00 | 84 | 1012.6 |
| 20260901014139 | 71 | 0 | 3.0 | 8.0 | 0.00 | 0.00 | 0.00 | 84 | 1012.6 |
| 20260901013254 | 72 | 214 | 3.0 | 8.0 | 0.00 | 0.00 | 0.00 | 83 | 1012.5 |
| 20260901012808 | 72 | 266 | 2.0 | 8.0 | 0.00 | 0.00 | 0.00 | 83 | 1012.6 |
| 20260901012255 | 72 | 0 | 3.0 | 10.0 | 0.00 | 0.00 | 0.00 | 83 | 1012.5 |
| 20260901012023 | 73 | 0 | 4.0 | 10.0 | 0.00 | 0.00 | 0.00 | 82 | 1012.6 |
| 20260901011925 | 72 | 223 | 4.0 | 10.0 | 0.00 | 0.00 | 0.00 | 82 | 1012.5 |
| 20260901010758 | 73 | 186 | 4.0 | 12.0 | 0.00 | 0.00 | 0.00 | 82 | 1012.6 |
| 20260901010253 | 73 | 249 | 4.0 | 12.0 | 0.00 | 0.00 | 0.00 | 81 | 1012.6 |
| 20260901005800 | 74 | 0 | 3.0 | 9.0 | 0.00 | 0.00 | 0.00 | 81 | 1012.7 |
| 20260901005254 | 74 | 253 | 3.0 | 8.0 | 0.00 | 0.00 | 0.00 | 79 | 1012.7 |
| 20260901004757 | 75 | 165 | 4.0 | 9.0 | 0.00 | 0.00 | 0.00 | 79 | 1012.7 |
| 20260901004647 | 76 | 317 | 3.0 | 8.0 | 0.00 | 0.00 | 0.00 | 77 | 1012.6 |
| 20260901004502 | 75 | 0 | 4.0 | 9.0 | 0.00 | 0.00 | 0.00 | 78 | 1012.7 |
| 20260901003316 | 76 | 293 | 3.0 | 8.0 | 0.00 | 0.00 | 0.00 | 76 | 1012.6 |
| 20260901002807 | 76 | 192 | 3.0 | 7.0 | 0.00 | 0.00 | 0.00 | 77 | 1012.7 |
| 20260901002257 | 76 | 248 | 4.0 | 10.0 | 0.00 | 0.00 | 0.00 | 77 | 1012.7 |
| 20260901001759 | 76 | 0 | 4.0 | 10.0 | 0.00 | 0.00 | 0.00 | 77 | 1012.8 |
| 20260901001248 | 76 | 229 | 4.0 | 9.0 | 0.00 | 0.00 | 0.00 | 77 | 1012.8 |
| 20260901000751 | 76 | 181 | 4.0 | 9.0 | 0.00 | 0.00 | 0.00 | 76 | 1012.7 |